Location: Cahas Mountain Overlook
(37.0833°N, 80.1000°W)
Time: 10:50:15
(UTC-04:00)

A-11 Canister half - Pass Details

Date: 15 February 2026
Orbit: 1524 x 1683 km, 47.3° (Epoch: 16 March)

Event Time Altitude Azimuth Distance (km) Brightness Sun altitude
Rises 21:09:39 0° 293° (WNW) 4,676 12.5 -38.1°
Reaches altitude 10° 21:12:51 10° 299° (WNW) 3,690 11.7 -38.7°
Enters shadow 21:20:48 47° 354° (N) 1,934 9.5 -40.3°
